Weather History for KTVL - August, 2014

Change the Weather History Date:

Tuesday, August 12, 2014

  Actual Average Record
Temperature  
Mean Temperature 62 °F 61 °F  
Max Temperature 77 °F 81 °F 89 °F (1990)
Min Temperature 47 °F 41 °F 31 °F (1993)
Degree Days  
Heating Degree Days 3 4  
Month to date heating degree days 24 48  
Since 1 June heating degree days 248 496  
Since 1 July heating degree days 38 186  
Cooling Degree Days 0 0  
Month to date cooling degree days 8 7  
Year to date cooling degree days 95 26  
Since 1 June cooling degree days 95 26  
Growing Degree Days 10 (Base 50)    
Moisture  
Dew Point 44 °F    
Average Humidity 59    
Maximum Humidity 93    
Minimum Humidity 25    
Precipitation  
Precipitation 0.00 in - 1.40 in (1965)
Month to date precipitation 0.98  
Year to date precipitation 13.88  
Sea Level Pressure  
Sea Level Pressure 30.10 in    
Wind  
Wind Speed 3 mph (SSW)    
Max Wind Speed 26 mph    
Max Gust Speed 42 mph    
Visibility 7 miles    
Events Fog    
T = Trace of Precipitation, MM = Missing Value Source: NWS Daily Summary

Daily Weather History Graph

Daily Weather History Graph

Search for Another Location

Airport or City:

Trip Planner

Search our weather history database for the weather conditions in past years. The results will help you decide how hot, cold, wet, or windy it might be!

Date:

Astronomy

Aug. 12, 2014 Rise Set
Actual Time 6:10 AM PDT 7:58 PM PDT
Civil Twilight 5:42 AM PDT 8:27 PM PDT
Nautical Twilight 5:07 AM PDT 9:01 PM PDT
Astronomical Twilight 4:30 AM PDT 9:38 PM PDT
Moon 9:11 PM PDT (8/12) 8:32 AM PDT (8/12)
Length of Visible Light 14h 44m
Length of Day
13h 47m
Waning Gibbous, 94% of the Moon is Illuminated
Aug 12
Waning Gibbous
Aug 17
Last Quarter
Aug 25
New
Sep 2
First Quarter
Sep 8
Full

Hourly Weather History & Observations

Time (PDT) Temp. Dew Point Humidity Pressure Visibility Wind Dir Wind Speed Gust Speed Precip Events Conditions
12:53 AM 52.0 °F 48.9 °F 89% 30.07 in 0.5 mi Calm Calm - N/A Fog Fog
1:53 AM 51.1 °F 48.0 °F 89% 30.08 in 1.0 mi South 3.5 mph - N/A   Mist
2:02 AM 50.0 °F 46.9 °F 89% 30.24 in 0.5 mi South 4.6 mph - N/A Fog Fog
2:36 AM 50.0 °F 46.9 °F 89% 30.23 in 5.0 mi Calm Calm - N/A   Mostly Cloudy
2:53 AM 50.0 °F 46.0 °F 86% 30.07 in 2.5 mi Calm Calm - N/A   Mostly Cloudy
3:00 AM 48.9 °F 46.0 °F 90% 30.23 in 0.8 mi Calm Calm - N/A   Mist
3:38 AM 48.9 °F 45.0 °F 86% 30.23 in 2.0 mi Calm Calm - N/A   Mostly Cloudy
3:41 AM 48.9 °F 45.0 °F 86% 30.23 in 5.0 mi Calm Calm - N/A   Mostly Cloudy
3:53 AM 48.9 °F 45.0 °F 86% 30.08 in 10.0 mi Calm Calm - N/A   Scattered Clouds
4:48 AM 48.2 °F 44.6 °F 87% 30.22 in 2.5 mi Calm Calm - N/A   Scattered Clouds
4:53 AM 46.9 °F 44.1 °F 90% 30.10 in 2.5 mi South 3.5 mph - N/A   Mostly Cloudy
5:02 AM 46.9 °F 44.1 °F 90% 30.21 in 1.0 mi South 3.5 mph - N/A   Mist
5:10 AM 46.9 °F 44.1 °F 90% 30.22 in 0.8 mi Variable 3.5 mph - N/A   Mist
5:16 AM 46.9 °F 44.1 °F 90% 30.21 in 2.5 mi Calm Calm - N/A   Mostly Cloudy
5:19 AM 46.9 °F 44.1 °F 90% 30.21 in 5.0 mi Calm Calm - N/A   Mostly Cloudy
5:29 AM 46.9 °F 43.0 °F 86% 30.22 in 10.0 mi SSW 3.5 mph - N/A   Scattered Clouds
5:53 AM 46.9 °F 43.0 °F 86% 30.09 in 10.0 mi Calm Calm - N/A   Partly Cloudy
6:53 AM 48.0 °F 45.0 °F 89% 30.09 in 10.0 mi Calm Calm - N/A   Overcast
7:53 AM 54.0 °F 48.9 °F 83% 30.08 in 10.0 mi South 3.5 mph - N/A   Scattered Clouds
8:53 AM 59.0 °F 51.1 °F 75% 30.07 in 10.0 mi Calm Calm - N/A   Mostly Cloudy
10:53 AM 71.1 °F 45.0 °F 39% 30.04 in 10.0 mi SSW 11.5 mph 27.6 mph N/A   Mostly Cloudy
11:53 AM 71.1 °F 43.0 °F 36% 30.04 in 10.0 mi SSW 11.5 mph 25.3 mph N/A   Mostly Cloudy
12:53 PM 73.0 °F 43.0 °F 34% 30.03 in 10.0 mi SW 12.7 mph 25.3 mph N/A   Mostly Cloudy
1:53 PM 75.0 °F 42.1 °F 31% 30.02 in 10.0 mi SSW 15.0 mph 33.4 mph N/A   Partly Cloudy
2:53 PM 75.9 °F 39.0 °F 26% 30.01 in 10.0 mi SSW 10.4 mph 18.4 mph N/A   Partly Cloudy
3:53 PM 75.9 °F 37.9 °F 25% 30.00 in 10.0 mi South 16.1 mph 25.3 mph N/A   Clear
4:53 PM 75.0 °F 39.0 °F 27% 30.00 in 10.0 mi SSW 9.2 mph 24.2 mph N/A   Clear
5:53 PM 72.0 °F 39.0 °F 30% 30.01 in 10.0 mi SSW 11.5 mph 20.7 mph N/A   Clear
6:53 PM 70.0 °F 39.0 °F 32% 30.01 in 10.0 mi SSW 10.4 mph - N/A   Clear
7:53 PM 66.9 °F 41.0 °F 39% 30.00 in 10.0 mi SSW 5.8 mph - N/A   Clear
8:53 PM 64.9 °F 42.1 °F 43% 30.01 in 10.0 mi SW 8.1 mph - N/A   Clear
9:53 PM 63.0 °F 43.0 °F 48% 29.99 in 10.0 mi SSW 5.8 mph - N/A   Clear
10:53 PM 63.0 °F 41.0 °F 45% 29.98 in 10.0 mi SW 5.8 mph - N/A   Clear
11:53 PM 63.0 °F 42.1 °F 46% 29.98 in 10.0 mi SW 8.1 mph - N/A   Clear